Skip Navigation Links
NOAA logo - Click to go to the NOAA homepage
NOAA's National Weather Service
Alaska Aviation Weather Unit
  NWS logo - Click to go to the NWS homepage
Left Navbar Graphic     22 AKDT = 06 GMT

   
NOAA is celebrating 200 years of science, service, and stewardship. Visit the NOAA 200th celebration Web site to learn more.
USA.gov is the U.S. Government's official Web portal to all Federal, state and local government Web resources and services.
Facebook
NWS on Facebook

Important Change Regarding the AAWU Web Presence

 

Over the last several months, the AAWU has been working to navigate its webpages to a nationally supported server. Security, as well as other needs, have necessitated the change.  In the process, we have made an effort to enhance the functionality of our website, as well as some of our products. As of June 20, 2017, aawu.arh.noaa.gov will be discontinued. The new AAWU web address is weather.gov/aawu. It is now live and will run in-parallel with the old site until it is discontinued. Please send any feedback or questions regarding the new webpages to nws.ar.aawu.webauthors@noaa.gov.  Thank you for your patience during this time of transition.
AAWU Home :: Display TAF Add Bookmark
METAR PANT 280053Z AUTO 30005KT 10SM CLR 22/02 A3014 RMK SLP208
     T02220017 TSNO $ VIA AUTODIAL=

METAR PANT 280153Z AUTO 32006KT 10SM CLR 22/02 A3013 RMK AO2 SLP202
     T02170022 TSNO $=

METAR PANT 280253Z AUTO 32005KT 10SM CLR 21/03 A3011 RMK AO2 SLP198
 T02060028 58014 TSNO $=

METAR PANT 280353Z AUTO 32005KT 10SM CLR 18/05 A3010 RMK AO2 SLP195
     T01830050 TSNO $=

METAR PANT 280453Z AUTO 32004KT 10SM CLR 16/06 A3009 RMK AO2 SLP190
     T01560056 TSNO $=

METAR PANT 280553Z AUTO 33005KT 10SM CLR 14/06 A3009 RMK AO2 SLP190
     T01440061 10228 20139 56008 TSNO $=


NOAA's National Weather Service
Alaska Aviation Weather Unit
6930 Sand Lake Road
Anchorage, AK 99502-1845
Disclaimer
Credits
Glossary
Privacy Policy
About Us
Career Opportunities
Contact AAWU Internet Services Site last modified: April, 17th 2012